1500 visiteurs
Prévisions de votre ville :
Vigilance : 4 départements 1 département Mise à jour le 17/10/2018 à 06:01 - Voir la carte

Paris Roissy CDG (95380) le 17/10/2018 à 07:30 Choisir station

13°C 88 % NNO Vit. moyenne 6 kmh/h

Relevés météo quotidiens pour la station de :

UTC
S: Synop
M: Metar
Loc T°C
(°C)
Td
(°C)
HR
(%)
Vis
(km)
Néb
(octa)
Vent
(km/h)
Pression
(mb)
Précipitations
(mm)
Temps
              MOY
10 min
DIR RAF 1h MESURE VAR SUR 3h    
S 00 h 02h 18.9 12.4 66 20 /8 13 46 1009.8 -0.1/3h 0.0/1h
S 01 h 03h 18.5 12.3 67 20 /8 11 44 1010.3 +0.5/3h 0.0/1h
S 02 h 04h 17.4 12.5 73 20 /8 9 24 1010.1 +0.3/3h 0.0/1h
S 03 h 05h 15.7 12.1 79 20 /8 2 9 1010.2 +0.1/3h 0.0/3h -
S 04 h 06h 15.2 12.0 81 20 /8 7 13 1010.1 -0.5/3h 0.0/1h
S 05 h 07h 14.6 11.7 83 20 /8 4 7 1010.7 +0.3/3h 0.0/1h -
S 06 h 08h 14.0 11.3 84 20 /8 7 15 1011.1 +0.7/3h 0.0/3h
S 07 h 09h 15.9 12.3 79 20 /8 9 17 1011.5 +1.4/3h 0.0/1h
S 08 h 10h 19.7 13.2 66 20 /8 11 17 1011.5 +1.3/3h 0.0/1h -
S 09 h 11h 22.2 13.3 57 20 /8 11 20 1011.4 +1.1/3h 0.0/3h -
S 10 h 12h 23.0 12.6 52 20 /8 11 20 1011.3 +0.5/3h 0.0/1h -
S 11 h 13h 24.4 11.7 45 19 /8 24 48 1010.8 -0.3/3h 0.0/1h
S 12 h 14h 25.7 11.5 41 19 /8 24 52 1010.0 -1.0/3h 0.0/6h - 0.0/3h
S 13 h 15h 25.9 10.5 38 20 /8 20 37 1009.8 -1.2/3h 0.0/1h
S 14 h 16h 26.3 10.0 36 20 /8 9 17 1009.9 -0.7/3h 0.0/1h -
S 15 h 17h 25.2 10.3 39 20 /8 15 31 1010.2 +0.1/3h 0.0/3h
S 16 h 18h 25.3 11.1 41 20 /8 13 26 1010.6 +0.7/3h 0.0/1h
S 17 h 19h 22.9 11.9 50 20 /8 17 31 1011.6 +1.4/3h 0.0/1h
S 18 h 20h 21.6 11.9 54 20 /8 11 22 1013.5 +2.9/3h 0.0/12h - 0.0/3h
S 19 h 21h 20.9 11.8 56 20 /8 11 22 1013.7 +2.6/3h 0.0/1h
S 20 h 22h 20.7 11.9 57 20 /8 15 28 1014.4 +2.5/3h 0.0/1h
S 21 h 23h 20.4 11.9 58 20 /8 6 17 1015.2 +1.5/3h 0.0/3h -
S 22 h 00h 20.1 12.3 61 20 /8 6 15 1015.7 +1.9/3h 0.0/1h -
S 23 h 01h 20.0 12.5 62 20 /8 13 31 1015.8 +1.3/3h 0.0/1h
evolution des temperatures
cumul des precipitations
vent moyen et rafales
pression atmospherique

Un tiret (-) signifie que les données ne sont pas disponibles.

Passez la souris sur les pictos temps pour avoir plus de précisions. Passez les flèches sur l'icône de la direction du vent pour voir la direction précise en degrés.

Les données de l'heure en cours sont disponibles à partir de H+15 minutes.


S signifie station Synop, plus complète qu'une station Metar (M). Il y a +1h de différence entre l'heure UTC et l'heure légale en hiver et +2h en été.

Td est la mesure du point de rosée.

HR est l'humidité relative/p>

Vis est la visibilité

Néb est la nébulosité du ciel (couverture nuageuse) exprimée en octas (de 0/8 à 8/8).

Vent moy 10 min donne le vent moyen sur les 10 minutes qui précèdent le relevé.

Vent raf 1h donne la rafale maximale mesurée dans l'heure qui précède le relevé.


Les données les plus anciennes remontent à avril 2014.

Les données présentées sur cette page proviennent des stations météo officielles. Les relevés sont effectués aux normes en vigueur (anémomètre à 10m de haut, thermomètre sous abri normalisé à 2m du sol...)

Météo 60 décline toute responsabilité en cas d'absence de données, d'erreurs, de mauvaise utilisation ou interprétation et n'est pas habilité à fournir des certificats intempéries.